QPF
0.02 0.03 0.03 0.03 0.03 0.03 0.04 0.05 0.06 0.06 0.05 0.06 0.07 0.05 0.03 0.03 0.04 0.04 0.07 0.11 0.05 0.05 0.06 0.08 0.08 0.08 0.08 0.09 0.11 0.11 0.10 0.09 0.09 0.08 0.08 0.09 0.08 0.08 0.05 0.03 0.03 0.03 0.03
0.02 0.02 0.02 0.03 0.03 0.03 0.02 0.03 0.04 0.05 0.05 0.07 0.07 0.04 0.03 0.03 0.03 0.04 0.06 0.08 0.06 0.07 0.07 0.09 0.09 0.08 0.09 0.10 0.12 0.12 0.11 0.09 0.09 0.09 0.09 0.08 0.06 0.06 0.06 0.04 0.03 0.03 0.03
0.01 0.02 0.02 0.02 0.03 0.03 0.03 0.04 0.05 0.07 0.07 0.07 0.06 0.04 0.03 0.03 0.02 0.03 0.05 0.05 0.04 0.05 0.07 0.09 0.09 0.09 0.09 0.10 0.11 0.11 0.11 0.11 0.09 0.10 0.09 0.07 0.05 0.05 0.05 0.05 0.04 0.03 0.03
0.02 0.03 0.04 0.05 0.07 0.09 0.09 0.09 0.09 0.10 0.08 0.08 0.06 0.05 0.04 0.03 0.02 0.02 0.04 0.05 0.03 0.02 0.04 0.06 0.08 0.10 0.10 0.10 0.11 0.11 0.10 0.10 0.09 0.11 0.10 0.07 0.06 0.05 0.05 0.06 0.05 0.03 0.02
0.03 0.05 0.06 0.08 0.10 0.12 0.12 0.10 0.10 0.08 0.07 0.08 0.06 0.06 0.04 0.02 0.02 0.01 0.04 0.04 0.02 0.02 0.03 0.04 0.06 0.09 0.10 0.10 0.09 0.10 0.12 0.13 0.11 0.10 0.07 0.05 0.04 0.05 0.04 0.04 0.04 0.05 0.03
0.04 0.03 0.03 0.04 0.06 0.08 0.08 0.07 0.07 0.05 0.05 0.05 0.04 0.05 0.04 0.02 0.01 0.01 0.02 0.02 0.02 0.02 0.02 0.03 0.03 0.04 0.06 0.08 0.09 0.08 0.09 0.11 0.13 0.11 0.08 0.06 0.05 0.05 0.04 0.04 0.04 0.04 0.05
0.03 0.03 0.04 0.04 0.04 0.05 0.06 0.06 0.04 0.03 0.04 0.05 0.06 0.05 0.04 0.02 0.02 0.02 0.02 0.02 0.02 0.02 0.02 0.02 0.02 0.02 0.04 0.05 0.05 0.06 0.08 0.11 0.13 0.09 0.08 0.07 0.06 0.05 0.04 0.03 0.04 0.04 0.04
0.04 0.04 0.04 0.04 0.05 0.05 0.05 0.06 0.05 0.04 0.04 0.06 0.06 0.05 0.04 0.02 0.02 0.02 0.02 0.02 0.02 0.02 0.02 0.02 0.02 0.02 0.02 0.04 0.04 0.06 0.08 0.10 0.12 0.10 0.09 0.09 0.07 0.06 0.05 0.05 0.05 0.05 0.05
0.06 0.08 0.07 0.06 0.05 0.05 0.05 0.06 0.06 0.05 0.05 0.06 0.07 0.07 0.06 0.04 0.03 0.04 0.04 0.04 0.03 0.03 0.02 0.02 0.02 0.02 0.02 0.03 0.04 0.05 0.06 0.07 0.09 0.11 0.12 0.10 0.08 0.08 0.07 0.06 0.05 0.05 0.05
0.08 0.09 0.11 0.10 0.07 0.07 0.07 0.08 0.07 0.07 0.08 0.06 0.06 0.07 0.07 0.05 0.04 0.04 0.05 0.07 0.06 0.03 0.02 0.01 0.02 0.02 0.02 0.03 0.03 0.04 0.04 0.06 0.06 0.07 0.09 0.08 0.07 0.06 0.06 0.06 0.06 0.05 0.04
0.09 0.08 0.10 0.11 0.11 0.09 0.09 0.11 0.13 0.13 0.12 0.09 0.07 0.07 0.07 0.05 0.04 0.04 0.06 0.09 0.10 0.05 0.02 0.02 0.02 0.03 0.03 0.03 0.04 0.04 0.05 0.05 0.04 0.04 0.05 0.06 0.06 0.06 0.06 0.05 0.06 0.07 0.06
0.09 0.08 0.08 0.09 0.10 0.10 0.11 0.14 0.16 0.15 0.12 0.10 0.08 0.09 0.09 0.08 0.07 0.06 0.06 0.07 0.10 0.08 0.03 0.02 0.03 0.03 0.03 0.04 0.04 0.06 0.06 0.06 0.05 0.04 0.04 0.05 0.05 0.05 0.06 0.08 0.10 0.10 0.10
0.07 0.05 0.05 0.05 0.05 0.07 0.08 0.11 0.12 0.09 0.08 0.08 0.07 0.07 0.08 0.09 0.07 0.06 0.06 0.06 0.08 0.08 0.04 0.02 0.02 0.03 0.03 0.03 0.04 0.05 0.06 0.06 0.06 0.04 0.04 0.03 0.02 0.03 0.04 0.05 0.07 0.09 0.11
0.08 0.05 0.03 0.03 0.03 0.04 0.04 0.06 0.06 0.06 0.07 0.07 0.06 0.06 0.06 0.09 0.09 0.07 0.07 0.07 0.08 0.08 0.06 0.04 0.03 0.03 0.03 0.03 0.04 0.05 0.05 0.05 0.05 0.04 0.03 0.02 0.02 0.02 0.02 0.03 0.04 0.05 0.06
0.08 0.07 0.05 0.03 0.03 0.03 0.02 0.02 0.03 0.05 0.06 0.06 0.06 0.06 0.05 0.06 0.09 0.09 0.08 0.08 0.07 0.07 0.07 0.05 0.04 0.03 0.03 0.03 0.04 0.03 0.04 0.04 0.04 0.04 0.03 0.02 0.02 0.02 0.02 0.02 0.02 0.03 0.04
0.04 0.03 0.03 0.04 0.04 0.04 0.03 0.03 0.02 0.04 0.05 0.05 0.05 0.03 0.03 0.03 0.05 0.07 0.07 0.07 0.06 0.05 0.06 0.05 0.05 0.04 0.03 0.03 0.04 0.03 0.04 0.04 0.03 0.02 0.02 0.02 0.01 0.02 0.02 0.01 0.01 0.01 0.03
0.02 0.02 0.03 0.03 0.03 0.03 0.03 0.03 0.03 0.03 0.05 0.05 0.04 0.02 0.02 0.03 0.03 0.05 0.06 0.07 0.07 0.06 0.05 0.05 0.05 0.04 0.03 0.03 0.03 0.03 0.04 0.04 0.03 0.03 0.02 0.02 0.01 0.01 0.01 0.01 0.01 0.01 0.02
0.02 0.02 0.02 0.01 0.01 0.02 0.02 0.03 0.03 0.04 0.06 0.04 0.04 0.04 0.03 0.05 0.04 0.03 0.04 0.04 0.06 0.06 0.05 0.04 0.05 0.04 0.04 0.04 0.04 0.04 0.04 0.04 0.04 0.03 0.03 0.02 0.02 0.01 0.01 0.00 0.00 0.00 0.01
0.02 0.02 0.02 0.01 0.01 0.02 0.02 0.03 0.03 0.03 0.04 0.05 0.05 0.04 0.04 0.05 0.03 0.03 0.03 0.04 0.05 0.05 0.06 0.05 0.05 0.05 0.05 0.05 0.04 0.04 0.04 0.04 0.04 0.04 0.03 0.02 0.02 0.01 0.01 0.01 0.01 0.01 0.01
0.03 0.02 0.02 0.03 0.03 0.03 0.03 0.05 0.05 0.03 0.03 0.04 0.04 0.04 0.05 0.04 0.04 0.05 0.06 0.05 0.06 0.07 0.07 0.07 0.07 0.06 0.05 0.05 0.05 0.03 0.03 0.04 0.04 0.04 0.04 0.03 0.02 0.01 0.01 0.01 0.01 0.01 0.01
0.03 0.02 0.02 0.03 0.03 0.04 0.05 0.06 0.06 0.04 0.02 0.02 0.03 0.04 0.04 0.04 0.04 0.06 0.06 0.06 0.07 0.07 0.06 0.06 0.05 0.05 0.04 0.04 0.04 0.04 0.04 0.04 0.05 0.04 0.04 0.03 0.02 0.01 0.01 0.01 0.01 0.02 0.01
0.03 0.03 0.03 0.03 0.04 0.04 0.06 0.07 0.05 0.03 0.01 0.01 0.02 0.02 0.02 0.02 0.03 0.05 0.07 0.08 0.08 0.07 0.06 0.04 0.04 0.05 0.04 0.03 0.03 0.04 0.04 0.03 0.03 0.03 0.05 0.04 0.04 0.02 0.02 0.01 0.01 0.01 0.01
0.03 0.03 0.03 0.04 0.04 0.05 0.04 0.03 0.03 0.02 0.01 0.02 0.02 0.02 0.01 0.01 0.01 0.02 0.05 0.06 0.06 0.05 0.05 0.04 0.03 0.03 0.03 0.03 0.03 0.03 0.03 0.02 0.02 0.03 0.04 0.05 0.05 0.04 0.04 0.03 0.03 0.01 0.01
0.02 0.02 0.02 0.02 0.02 0.03 0.04 0.03 0.03 0.03 0.02 0.02 0.02 0.02 0.01 0.01 0.01 0.02 0.04 0.05 0.04 0.03 0.03 0.03 0.02 0.02 0.02 0.03 0.04 0.03 0.03 0.03 0.03 0.03 0.03 0.04 0.04 0.04 0.03 0.04 0.04 0.03 0.03
0.03 0.02 0.03 0.03 0.04 0.03 0.05 0.05 0.06 0.06 0.05 0.05 0.05 0.03 0.01 0.01 0.01 0.03 0.05 0.04 0.03 0.02 0.02 0.03 0.03 0.03 0.03 0.03 0.04 0.04 0.03 0.04 0.03 0.03 0.04 0.04 0.04 0.05 0.05 0.05 0.05 0.05 0.04
0.03 0.03 0.04 0.04 0.03 0.02 0.04 0.06 0.09 0.11 0.11 0.09 0.07 0.05 0.03 0.02 0.02 0.03 0.05 0.04 0.03 0.02 0.03 0.03 0.04 0.04 0.03 0.03 0.04 0.04 0.04 0.05 0.05 0.05 0.05 0.06 0.06 0.06 0.06 0.05 0.05 0.07 0.08
MSLP
1015.87 1015.89 1015.87 1015.83 1015.80 1015.80 1015.85 1015.94 1016.05 1016.15 1016.22 1016.24 1016.21 1016.13 1016.02 1015.89 1015.77 1015.67 1015.58 1015.53 1015.49 1015.46 1015.45 1015.45 1015.48 1015.55 1015.65 1015.80 1016.00 1016.25 1016.52 1016.82 1017.14 1017.46 1017.78 1018.10 1018.41 1018.72 1019.00 1019.25 1019.48 1019.68 1019.85
1015.72 1015.77 1015.78 1015.78 1015.79 1015.81 1015.87 1015.95 1016.04 1016.11 1016.15 1016.15 1016.09 1015.97 1015.83 1015.65 1015.47 1015.30 1015.15 1015.02 1014.93 1014.86 1014.82 1014.81 1014.84 1014.91 1015.02 1015.16 1015.35 1015.58 1015.84 1016.13 1016.45 1016.80 1017.17 1017.55 1017.93 1018.31 1018.65 1018.95 1019.20 1019.40 1019.56
1015.45 1015.54 1015.61 1015.67 1015.74 1015.81 1015.90 1015.99 1016.06 1016.12 1016.13 1016.09 1015.99 1015.85 1015.65 1015.43 1015.19 1014.95 1014.72 1014.51 1014.35 1014.23 1014.16 1014.13 1014.16 1014.23 1014.34 1014.48 1014.66 1014.86 1015.09 1015.37 1015.68 1016.04 1016.45 1016.88 1017.33 1017.77 1018.17 1018.52 1018.81 1019.04 1019.22
1015.07 1015.20 1015.33 1015.47 1015.61 1015.75 1015.87 1015.98 1016.05 1016.08 1016.07 1016.00 1015.88 1015.70 1015.47 1015.20 1014.90 1014.59 1014.29 1014.01 1013.78 1013.60 1013.49 1013.45 1013.47 1013.54 1013.65 1013.79 1013.94 1014.12 1014.32 1014.56 1014.86 1015.21 1015.63 1016.10 1016.60 1017.09 1017.56 1017.97 1018.31 1018.58 1018.78
1014.59 1014.75 1014.95 1015.16 1015.38 1015.57 1015.74 1015.86 1015.93 1015.94 1015.91 1015.82 1015.68 1015.48 1015.23 1014.94 1014.60 1014.24 1013.87 1013.53 1013.23 1013.00 1012.85 1012.79 1012.80 1012.87 1012.97 1013.10 1013.24 1013.39 1013.55 1013.75 1014.02 1014.35 1014.76 1015.24 1015.77 1016.31 1016.84 1017.30 1017.69 1018.00 1018.25
1014.06 1014.24 1014.48 1014.75 1015.01 1015.25 1015.44 1015.57 1015.63 1015.64 1015.59 1015.49 1015.35 1015.16 1014.91 1014.61 1014.27 1013.88 1013.48 1013.09 1012.74 1012.46 1012.27 1012.18 1012.17 1012.23 1012.33 1012.45 1012.57 1012.69 1012.82 1012.98 1013.21 1013.51 1013.90 1014.37 1014.91 1015.48 1016.03 1016.54 1016.98 1017.34 1017.63
1013.51 1013.70 1013.95 1014.25 1014.54 1014.79 1014.99 1015.11 1015.16 1015.15 1015.09 1015.00 1014.87 1014.71 1014.50 1014.23 1013.90 1013.52 1013.11 1012.69 1012.31 1011.99 1011.76 1011.63 1011.60 1011.65 1011.74 1011.85 1011.95 1012.05 1012.15 1012.28 1012.46 1012.73 1013.09 1013.54 1014.07 1014.64 1015.21 1015.75 1016.22 1016.62 1016.95
1013.00 1013.17 1013.42 1013.71 1013.99 1014.24 1014.41 1014.51 1014.53 1014.51 1014.45 1014.37 1014.27 1014.16 1014.00 1013.79 1013.51 1013.16 1012.76 1012.34 1011.93 1011.58 1011.32 1011.16 1011.09 1011.11 1011.19 1011.28 1011.37 1011.46 1011.54 1011.64 1011.80 1012.03 1012.36 1012.79 1013.30 1013.85 1014.42 1014.96 1015.45 1015.87 1016.24
1012.56 1012.70 1012.92 1013.18 1013.44 1013.65 1013.78 1013.84 1013.83 1013.78 1013.72 1013.66 1013.60 1013.54 1013.45 1013.31 1013.09 1012.79 1012.42 1012.00 1011.59 1011.21 1010.91 1010.71 1010.61 1010.60 1010.65 1010.73 1010.81 1010.89 1010.96 1011.06 1011.20 1011.42 1011.73 1012.13 1012.61 1013.14 1013.69 1014.22 1014.71 1015.14 1015.52
1012.22 1012.33 1012.51 1012.74 1012.94 1013.10 1013.18 1013.19 1013.14 1013.06 1012.99 1012.94 1012.91 1012.90 1012.87 1012.79 1012.63 1012.38 1012.05 1011.65 1011.23 1010.83 1010.50 1010.26 1010.12 1010.07 1010.09 1010.15 1010.22 1010.30 1010.38 1010.48 1010.63 1010.85 1011.15 1011.54 1012.00 1012.51 1013.03 1013.54 1014.01 1014.43 1014.81
1011.97 1012.06 1012.22 1012.40 1012.56 1012.66 1012.69 1012.64 1012.54 1012.42 1012.32 1012.26 1012.25 1012.26 1012.26 1012.23 1012.12 1011.91 1011.60 1011.22 1010.81 1010.40 1010.04 1009.76 1009.58 1009.49 1009.47 1009.51 1009.57 1009.65 1009.74 1009.86 1010.04 1010.27 1010.59 1010.98 1011.43 1011.92 1012.42 1012.90 1013.35 1013.75 1014.13
1011.81 1011.90 1012.04 1012.19 1012.31 1012.35 1012.32 1012.22 1012.06 1011.89 1011.75 1011.66 1011.62 1011.62 1011.63 1011.61 1011.52 1011.33 1011.05 1010.68 1010.27 1009.86 1009.48 1009.18 1008.96 1008.83 1008.79 1008.80 1008.85 1008.93 1009.04 1009.19 1009.39 1009.66 1010.00 1010.41 1010.87 1011.36 1011.85 1012.31 1012.73 1013.11 1013.48
1011.72 1011.83 1011.97 1012.10 1012.18 1012.18 1012.10 1011.93 1011.72 1011.49 1011.29 1011.13 1011.04 1010.99 1010.96 1010.91 1010.80 1010.62 1010.35 1010.00 1009.60 1009.20 1008.82 1008.51 1008.27 1008.12 1008.05 1008.04 1008.08 1008.16 1008.28 1008.46 1008.69 1009.00 1009.38 1009.82 1010.30 1010.80 1011.29 1011.74 1012.16 1012.53 1012.88
1011.70 1011.84 1011.98 1012.09 1012.15 1012.11 1011.98 1011.76 1011.48 1011.18 1010.89 1010.65 1010.47 1010.33 1010.22 1010.11 1009.96 1009.76 1009.49 1009.16 1008.79 1008.42 1008.07 1007.78 1007.55 1007.39 1007.30 1007.28 1007.31 1007.39 1007.52 1007.71 1007.98 1008.33 1008.74 1009.22 1009.73 1010.25 1010.75 1011.22 1011.64 1012.01 1012.36
1011.73 1011.90 1012.05 1012.15 1012.18 1012.10 1011.93 1011.65 1011.31 1010.92 1010.54 1010.19 1009.89 1009.64 1009.42 1009.22 1009.01 1008.77 1008.49 1008.19 1007.87 1007.55 1007.26 1007.01 1006.82 1006.68 1006.60 1006.58 1006.60 1006.68 1006.82 1007.02 1007.31 1007.68 1008.13 1008.63 1009.18 1009.73 1010.26 1010.75 1011.18 1011.58 1011.94
1011.84 1012.02 1012.16 1012.24 1012.23 1012.12 1011.90 1011.57 1011.16 1010.69 1010.21 1009.74 1009.30 1008.91 1008.57 1008.26 1007.96 1007.68 1007.40 1007.13 1006.87 1006.63 1006.42 1006.25 1006.13 1006.04 1006.00 1005.99 1006.02 1006.10 1006.23 1006.44 1006.74 1007.12 1007.59 1008.12 1008.69 1009.27 1009.83 1010.35 1010.81 1011.23 1011.62
1012.00 1012.18 1012.30 1012.34 1012.30 1012.15 1011.87 1011.49 1011.01 1010.46 1009.87 1009.28 1008.71 1008.18 1007.70 1007.27 1006.89 1006.56 1006.28 1006.04 1005.84 1005.70 1005.59 1005.53 1005.50 1005.49 1005.50 1005.53 1005.58 1005.67 1005.81 1006.02 1006.31 1006.70 1007.17 1007.71 1008.29 1008.88 1009.47 1010.01 1010.51 1010.97 1011.40
1012.23 1012.37 1012.45 1012.46 1012.36 1012.16 1011.84 1011.41 1010.87 1010.24 1009.56 1008.85 1008.15 1007.48 1006.87 1006.32 1005.85 1005.47 1005.17 1004.97 1004.84 1004.78 1004.79 1004.84 1004.91 1005.00 1005.09 1005.17 1005.26 1005.37 1005.51 1005.72 1006.01 1006.39 1006.85 1007.38 1007.96 1008.56 1009.15 1009.72 1010.24 1010.73 1011.20
1012.48 1012.59 1012.62 1012.57 1012.43 1012.19 1011.82 1011.34 1010.75 1010.05 1009.29 1008.48 1007.67 1006.88 1006.14 1005.48 1004.92 1004.48 1004.16 1003.97 1003.89 1003.91 1004.01 1004.16 1004.35 1004.53 1004.70 1004.85 1004.99 1005.13 1005.29 1005.50 1005.78 1006.14 1006.58 1007.09 1007.65 1008.24 1008.83 1009.41 1009.95 1010.47 1010.98
1012.74 1012.80 1012.79 1012.70 1012.51 1012.23 1011.83 1011.32 1010.68 1009.94 1009.11 1008.23 1007.32 1006.42 1005.57 1004.81 1004.16 1003.65 1003.29 1003.09 1003.03 1003.10 1003.27 1003.50 1003.76 1004.03 1004.27 1004.49 1004.68 1004.86 1005.05 1005.27 1005.55 1005.89 1006.31 1006.79 1007.32 1007.89 1008.46 1009.03 1009.59 1010.13 1010.66
1012.96 1012.99 1012.95 1012.82 1012.62 1012.31 1011.89 1011.35 1010.70 1009.93 1009.05 1008.11 1007.13 1006.15 1005.21 1004.35 1003.62 1003.03 1002.62 1002.38 1002.31 1002.38 1002.58 1002.85 1003.16 1003.48 1003.78 1004.05 1004.29 1004.51 1004.72 1004.96 1005.24 1005.57 1005.96 1006.42 1006.92 1007.45 1008.00 1008.55 1009.10 1009.66 1010.22
1013.13 1013.15 1013.09 1012.96 1012.75 1012.43 1012.01 1011.47 1010.81 1010.02 1009.13 1008.16 1007.13 1006.09 1005.08 1004.15 1003.34 1002.68 1002.20 1001.90 1001.78 1001.82 1001.99 1002.25 1002.57 1002.90 1003.23 1003.53 1003.80 1004.05 1004.29 1004.54 1004.82 1005.15 1005.52 1005.95 1006.41 1006.91 1007.44 1007.97 1008.52 1009.08 1009.66
1013.23 1013.27 1013.23 1013.11 1012.91 1012.61 1012.20 1011.67 1011.02 1010.24 1009.35 1008.36 1007.32 1006.25 1005.21 1004.22 1003.35 1002.62 1002.07 1001.69 1001.50 1001.47 1001.58 1001.80 1002.08 1002.39 1002.70 1003.00 1003.28 1003.54 1003.79 1004.05 1004.34 1004.66 1005.02 1005.42 1005.86 1006.33 1006.83 1007.35 1007.89 1008.46 1009.06
1013.30 1013.37 1013.36 1013.28 1013.10 1012.83 1012.44 1011.94 1011.31 1010.56 1009.69 1008.72 1007.69 1006.63 1005.58 1004.58 1003.67 1002.90 1002.28 1001.84 1001.56 1001.45 1001.47 1001.60 1001.81 1002.06 1002.32 1002.59 1002.85 1003.09 1003.34 1003.60 1003.88 1004.19 1004.54 1004.92 1005.34 1005.79 1006.28 1006.79 1007.33 1007.91 1008.53
1013.36 1013.48 1013.51 1013.47 1013.33 1013.08 1012.73 1012.26 1011.66 1010.95 1010.12 1009.21 1008.22 1007.20 1006.18 1005.21 1004.30 1003.52 1002.87 1002.37 1002.02 1001.82 1001.75 1001.78 1001.89 1002.06 1002.25 1002.45 1002.66 1002.87 1003.09 1003.33 1003.59 1003.89 1004.22 1004.59 1004.99 1005.43 1005.91 1006.42 1006.97 1007.56 1008.19
1013.45 1013.61 1013.69 1013.68 1013.57 1013.36 1013.04 1012.60 1012.05 1011.39 1010.62 1009.78 1008.87 1007.93 1006.98 1006.06 1005.21 1004.45 1003.80 1003.27 1002.88 1002.61 1002.46 1002.40 1002.41 1002.48 1002.58 1002.70 1002.84 1003.00 1003.17 1003.37 1003.60 1003.87 1004.18 1004.53 1004.92 1005.35 1005.82 1006.34 1006.90 1007.51 1008.16
Thickness
5768 5767 5766 5765 5765 5764 5762 5762 5760 5760 5759 5758 5757 5756 5756 5755 5754 5753 5753 5753 5754 5753 5753 5752 5751 5750 5749 5748 5746 5745 5742 5741 5739 5738 5736 5735 5733 5731 5729 5728 5727 5726 5725
5767 5766 5765 5764 5764 5763 5762 5760 5759 5758 5758 5757 5756 5755 5755 5754 5753 5753 5753 5753 5753 5752 5752 5751 5750 5749 5748 5746 5745 5744 5742 5740 5739 5737 5735 5734 5731 5730 5728 5727 5726 5726 5724
5767 5765 5764 5763 5763 5762 5761 5760 5758 5757 5756 5755 5754 5754 5754 5753 5753 5752 5752 5752 5752 5751 5751 5750 5749 5748 5746 5745 5744 5743 5741 5739 5738 5736 5734 5732 5730 5729 5727 5726 5726 5725 5724
5767 5765 5764 5763 5762 5761 5760 5758 5757 5755 5754 5753 5752 5752 5752 5752 5752 5751 5751 5751 5750 5750 5750 5749 5748 5746 5745 5744 5743 5741 5740 5738 5736 5735 5733 5731 5729 5728 5726 5726 5725 5724 5723
5768 5765 5764 5762 5761 5760 5758 5757 5756 5754 5752 5751 5750 5750 5750 5750 5750 5750 5750 5750 5749 5749 5748 5747 5746 5745 5744 5743 5742 5740 5739 5737 5735 5734 5732 5730 5728 5727 5726 5725 5724 5723 5722
5767 5765 5763 5762 5760 5759 5757 5755 5753 5752 5751 5749 5749 5748 5748 5748 5749 5749 5749 5749 5748 5747 5747 5746 5745 5744 5743 5742 5741 5740 5738 5736 5734 5733 5731 5729 5727 5726 5725 5724 5723 5723 5722
5767 5765 5763 5761 5759 5757 5756 5754 5752 5750 5748 5747 5744 5743 5745 5747 5747 5747 5748 5747 5747 5746 5746 5745 5744 5743 5742 5741 5740 5739 5737 5735 5733 5731 5730 5728 5726 5725 5724 5723 5722 5722 5721
5767 5765 5762 5760 5759 5756 5754 5753 5751 5747 5746 5745 5742 5738 5736 5739 5742 5746 5745 5745 5746 5745 5744 5744 5742 5741 5740 5739 5738 5737 5736 5734 5732 5731 5729 5727 5726 5724 5723 5722 5722 5721 5720
5766 5764 5762 5760 5758 5756 5753 5752 5750 5747 5744 5743 5743 5738 5732 5730 5734 5740 5742 5743 5743 5742 5743 5742 5741 5740 5739 5738 5737 5736 5734 5732 5731 5730 5729 5727 5725 5724 5723 5722 5721 5720 5720
5764 5762 5761 5759 5757 5755 5753 5752 5751 5748 5744 5741 5740 5739 5737 5735 5731 5731 5736 5739 5740 5739 5740 5740 5740 5739 5738 5737 5736 5735 5733 5731 5730 5728 5727 5726 5724 5723 5722 5722 5721 5720 5719
5761 5760 5759 5758 5756 5754 5753 5751 5749 5747 5743 5740 5738 5736 5735 5733 5731 5728 5728 5731 5734 5736 5737 5738 5738 5737 5737 5736 5735 5734 5732 5731 5729 5727 5726 5724 5723 5722 5721 5720 5720 5719 5718
5758 5758 5757 5756 5754 5753 5751 5749 5747 5745 5742 5740 5739 5737 5734 5732 5730 5728 5726 5727 5728 5732 5734 5735 5735 5735 5735 5734 5733 5732 5731 5729 5728 5726 5724 5723 5722 5721 5720 5719 5718 5717 5717
5754 5754 5755 5754 5752 5751 5750 5748 5745 5743 5740 5738 5737 5735 5735 5733 5732 5729 5727 5726 5725 5727 5729 5731 5732 5732 5732 5732 5731 5730 5728 5727 5725 5724 5723 5721 5720 5719 5717 5716 5715 5714 5714
5753 5752 5752 5751 5750 5749 5748 5745 5743 5741 5739 5737 5736 5734 5733 5732 5732 5730 5728 5724 5721 5722 5723 5725 5728 5729 5729 5728 5728 5727 5725 5724 5723 5721 5720 5718 5717 5716 5714 5713 5712 5711 5711
5751 5750 5750 5748 5747 5746 5744 5742 5740 5738 5737 5735 5734 5732 5731 5731 5730 5729 5727 5725 5720 5716 5717 5721 5722 5725 5725 5725 5724 5723 5722 5721 5719 5718 5717 5715 5714 5713 5711 5710 5709 5708 5707
5748 5747 5746 5745 5743 5742 5741 5739 5737 5735 5733 5732 5731 5729 5728 5727 5726 5725 5724 5722 5720 5717 5714 5718 5719 5720 5720 5721 5720 5719 5718 5717 5716 5715 5714 5712 5711 5710 5708 5707 5706 5705 5704
5744 5743 5742 5741 5740 5738 5737 5735 5733 5732 5730 5728 5727 5726 5724 5723 5722 5721 5719 5718 5716 5715 5712 5714 5715 5716 5715 5715 5715 5714 5713 5713 5712 5711 5710 5709 5707 5706 5704 5703 5702 5701 5700
5741 5740 5738 5737 5736 5734 5733 5731 5729 5728 5726 5724 5723 5722 5720 5720 5717 5716 5715 5713 5712 5712 5710 5709 5710 5710 5710 5711 5710 5709 5709 5709 5708 5707 5707 5705 5704 5702 5701 5700 5698 5697 5696
5737 5736 5734 5733 5731 5730 5729 5727 5726 5724 5722 5721 5720 5718 5716 5714 5713 5711 5710 5709 5709 5708 5707 5705 5705 5705 5705 5705 5704 5704 5704 5703 5703 5703 5702 5701 5700 5699 5697 5696 5695 5693 5692
5733 5732 5730 5729 5727 5726 5724 5723 5721 5719 5717 5716 5715 5714 5713 5711 5709 5708 5706 5704 5704 5702 5701 5700 5699 5698 5698 5698 5697 5697 5697 5697 5697 5698 5697 5696 5695 5694 5693 5692 5690 5689 5687
5729 5728 5726 5724 5723 5721 5720 5718 5716 5715 5713 5711 5710 5709 5708 5708 5707 5705 5703 5701 5699 5697 5695 5694 5693 5692 5692 5691 5691 5692 5691 5691 5691 5691 5690 5690 5689 5689 5687 5687 5685 5684 5682
5725 5723 5721 5719 5717 5717 5716 5714 5712 5711 5708 5706 5704 5703 5703 5703 5702 5700 5699 5697 5695 5692 5690 5689 5688 5687 5687 5687 5687 5686 5684 5683 5684 5685 5684 5684 5684 5683 5683 5682 5681 5680 5678
5719 5717 5715 5713 5712 5711 5710 5708 5706 5704 5702 5700 5699 5697 5698 5698 5696 5694 5693 5691 5689 5689 5688 5686 5684 5684 5683 5683 5682 5680 5679 5678 5679 5680 5678 5678 5678 5677 5678 5677 5676 5675 5674
5713 5711 5710 5708 5706 5705 5704 5702 5700 5698 5696 5694 5693 5692 5691 5691 5690 5688 5687 5685 5684 5684 5683 5682 5682 5681 5681 5680 5679 5677 5675 5673 5673 5673 5672 5671 5672 5672 5673 5672 5671 5670 5668
5707 5705 5704 5702 5700 5699 5697 5695 5693 5690 5689 5688 5687 5686 5684 5684 5684 5682 5680 5679 5678 5679 5679 5678 5678 5677 5676 5675 5674 5671 5668 5666 5666 5667 5667 5665 5666 5665 5665 5665 5664 5663 5662
5701 5699 5697 5695 5693 5691 5690 5688 5685 5683 5681 5681 5680 5680 5679 5678 5677 5675 5674 5672 5672 5673 5673 5672 5671 5671 5670 5670 5668 5667 5665 5662 5661 5661 5661 5659 5658 5656 5656 5657 5656 5656 5655